"Pseudo-MPEC" for P11OrTM

Created 2023 Nov 30 6:22:04 UT using Find_Orb

Click here for an explanation of pseudo-MPECs

 
 Astrometry: 
     P11OrTM* C2023 11 19p8%g;EAJKrA-mja2]V=]\UM8IhQZLmPeLqZr8^C0p.AstrometryF51
     P11OrTM  C2023 11 19Y(E5redacted;yclick)qTV/WD:7J-A548I,P-);0GYZ0lbUhereF51
     P11OrTM  C2023 11 19';8xIHaFqqc8,wforP0]Z=@u'B.aR#a'rYAu!Iwr@:0l:6)u.JJ5F51
     P11OrTM  C2023 11 19lYQx3.9o'mNHpI$?v_oaea!VDvexplanationdnGy:Z*lm9,b@ykF51
     P11OrTM  C2023 11 19BonFhowM^m%9II63r7ffqqY0?[PrLLBtM0CJ8ab+f!TjkA(-(S$;F51
     P11OrTM KC2023 11 23.18061 04 03 44.01 +00 49 36.2    ~BN5q 22.1 RVNEOCP291
     P11OrTM KC2023 11 23.19113 04 03 43.26 +00 49 27.4    ~BN5q 21.9 RVNEOCP291
     P11OrTM KC2023 11 23.20172 04 03 42.49 +00 49 18.0    ~BN5q       VNEOCP291

Station data:
(291) LPL/Spacewatch II  (N31.961669 W111.599905)  US/Arizona.  Observers J.
   V. Scotti, R. S. McMillan. 1.8-m f/2.7 reflector + CCD.
(F51) Pan-STARRS 1, Haleakala  (N20.707234 W156.255910)  US/Hawaii.
   Observers J. Bulger, T. Lowe, A. Schultz, M. Willman. Measurers K.
   Chambers, S. Chastel, T. de Boer, L. Denneau, J. Fairlamb, H. Flewelling,
   M. Huber, C.-C. Lin, E. Magnier, Y. Ramanjooloo, R. Wainscoat, R. Weryk.
   1.8-m Ritchey-Chrétien + CCD.

Orbital elements:  P11OrTM
   Perihelion 2022 Nov 24.70242 +/- 305 TT = 16:51:29 (JD 2459908.20242)
Epoch 2023 Nov 23.0 TT = JDT 2460271.5   Earth MOID: 0.8176      AutoNEOCP
M 129.63353146 +/- 80               (J2000 ecliptic)
n   0.35682464 +/- 0.0721           Peri.   69.71594 +/- 53
a   1.96863930 +/- 0.265            Node   212.96106 +/- 10
e   0.1130397 +/- 0.126             Incl.   22.65114 +/- 10
P   2.76                   H 19.59  G  0.15   U 11.0  SR
q 1.74610485 +/- 0.127    Q 2.19117374 +/- 0.769
From 8 observations 2023 Nov. 19-23; mean residual 0".20
Residuals in arcseconds: 
231119 F51  .07-  .11-    231119 F51  .36+  .51+    231123 291  .03+  .14+    
231119 F51  .13-  .23-    231119 F51  .09+  .09-    231123 291  .09-  .18-    
231119 F51  .23-  .07-    231123 291  .05-  .07-    

Ephemerides (geocentric):
Date (UTC) HH   RA             Dec           delta  r     elong  mag " sig PA
---- --------  ------------   ------------  ------ ------ -----  --- --------
2023 11 30 06  03 55 38.149   -00 42 56.65  1.1882 2.1305 156.8 22.3  181  88
2023 11 30 07  03 55 35.369   -00 43 26.23  1.1884 2.1305 156.8 22.3  183  88
2023 11 30 08  03 55 32.590   -00 43 55.76  1.1886 2.1306 156.7 22.3  184  88
2023 11 30 09  03 55 29.812   -00 44 25.26  1.1887 2.1306 156.7 22.3  186  88
2023 11 30 10  03 55 27.036   -00 44 54.72  1.1889 2.1306 156.7 22.3  187  88
2023 11 30 11  03 55 24.261   -00 45 24.14  1.1891 2.1307 156.6 22.3  189  88
2023 11 30 12  03 55 21.487   -00 45 53.52  1.1892 2.1307 156.6 22.3  190  88
2023 11 30 13  03 55 18.715   -00 46 22.86  1.1894 2.1308 156.6 22.3  192  88
2023 11 30 14  03 55 15.944   -00 46 52.16  1.1895 2.1308 156.5 22.3  194  88
2023 11 30 15  03 55 13.174   -00 47 21.42  1.1897 2.1308 156.5 22.3  195  88
2023 11 30 16  03 55 10.406   -00 47 50.64  1.1899 2.1309 156.5 22.3  197  88
2023 11 30 17  03 55 07.639   -00 48 19.82  1.1900 2.1309 156.5 22.3  199  88
2023 11 30 18  03 55 04.874   -00 48 48.96  1.1902 2.1309 156.4 22.3  200  88
2023 11 30 19  03 55 02.110   -00 49 18.07  1.1904 2.1310 156.4 22.3  202  88
2023 11 30 20  03 54 59.347   -00 49 47.13  1.1905 2.1310 156.4 22.3  203  88
2023 11 30 21  03 54 56.586   -00 50 16.16  1.1907 2.1310 156.3 22.3  205  88
2023 11 30 22  03 54 53.826   -00 50 45.14  1.1909 2.1311 156.3 22.3  207  88
2023 11 30 23  03 54 51.068   -00 51 14.09  1.1910 2.1311 156.3 22.3  208  88
2023 12 01 00  03 54 48.311   -00 51 42.99  1.1912 2.1312 156.2 22.3  210  88
2023 12 01 01  03 54 45.555   -00 52 11.86  1.1914 2.1312 156.2 22.3  212  88
2023 12 01 02  03 54 42.801   -00 52 40.69  1.1915 2.1312 156.2 22.3  213  88
2023 12 01 03  03 54 40.048   -00 53 09.47  1.1917 2.1313 156.1 22.3  215  88
2023 12 01 04  03 54 37.297   -00 53 38.22  1.1919 2.1313 156.1 22.3  217  88
2023 12 01 05  03 54 34.547   -00 54 06.93  1.1920 2.1313 156.1 22.3  218  88
2023 12 01 06  03 54 31.799   -00 54 35.60  1.1922 2.1314 156.0 22.3  220  88
2023 12 01 07  03 54 29.052   -00 55 04.22  1.1924 2.1314 156.0 22.3  222  88
2023 12 01 08  03 54 26.306   -00 55 32.81  1.1925 2.1314 156.0 22.3  223  88
2023 12 01 09  03 54 23.562   -00 56 01.36  1.1927 2.1315 156.0 22.3  225  87
2023 12 01 10  03 54 20.820   -00 56 29.87  1.1929 2.1315 155.9 22.3  227  87
2023 12 01 11  03 54 18.079   -00 56 58.34  1.1931 2.1316 155.9 22.3  228  87
2023 12 01 12  03 54 15.339   -00 57 26.77  1.1932 2.1316 155.9 22.3  230  87
2023 12 01 13  03 54 12.601   -00 57 55.15  1.1934 2.1316 155.8 22.3  232  87
2023 12 01 14  03 54 09.865   -00 58 23.50  1.1936 2.1317 155.8 22.3  234  87
2023 12 01 15  03 54 07.130   -00 58 51.81  1.1938 2.1317 155.8 22.3  235  87
2023 12 01 16  03 54 04.397   -00 59 20.08  1.1939 2.1317 155.7 22.3  237  87
2023 12 01 17  03 54 01.665   -00 59 48.31  1.1941 2.1318 155.7 22.3  239  87
2023 12 01 18  03 53 58.934   -01 00 16.50  1.1943 2.1318 155.7 22.3  240  87
2023 12 01 19  03 53 56.205   -01 00 44.65  1.1945 2.1318 155.6 22.3  242  87
2023 12 01 20  03 53 53.478   -01 01 12.76  1.1946 2.1319 155.6 22.3  244  87
2023 12 01 21  03 53 50.752   -01 01 40.83  1.1948 2.1319 155.6 22.3  246  87
2023 12 01 22  03 53 48.028   -01 02 08.85  1.1950 2.1320 155.5 22.3  247  87
2023 12 01 23  03 53 45.306   -01 02 36.84  1.1952 2.1320 155.5 22.3  249  87
2023 12 02 00  03 53 42.584   -01 03 04.79  1.1953 2.1320 155.5 22.3  251  87
2023 12 02 01  03 53 39.865   -01 03 32.70  1.1955 2.1321 155.4 22.3  253  87
2023 12 02 02  03 53 37.147   -01 04 00.57  1.1957 2.1321 155.4 22.3  254  87
2023 12 02 03  03 53 34.431   -01 04 28.39  1.1959 2.1321 155.4 22.3  256  87
2023 12 02 04  03 53 31.716   -01 04 56.18  1.1961 2.1322 155.3 22.3  258  87
2023 12 02 05  03 53 29.003   -01 05 23.93  1.1962 2.1322 155.3 22.3  260  87